DW1833 Weather Reports


time (UTC)temp
C
wind
direction
speed
KPH
gust
KPH
rain 1hr
cm
rain 24hr
cm
rain mn
cm
humidity
%
barometer
mb
20190419021705 12 0.0 0.0 0.00 0.00 0.00 57 1022.6
20190419020205 12 0.0 0.0 0.00 0.00 0.00 57 1022.6
20190419014705 12 0.0 0.0 0.00 0.00 0.00 56 1022.8
20190419013205 12 0.0 0.0 0.00 0.00 0.00 56 1022.8
20190419011705 13 0.0 0.0 0.00 0.00 0.00 55 1022.4
20190419010205 13 0.0 0.0 0.00 0.00 0.00 55 1022.4
20190419004705 13 0.0 0.0 0.00 0.00 0.00 55 1022.8
20190419003206 13 0.0 0.0 0.00 0.00 0.00 54 1022.8
20190419001705 13 0.0 0.0 0.00 0.00 0.00 54 1022.4
20190419000205 13 0.0 0.0 0.00 0.00 0.00 54 1022.5
20190418234705 13 0.0 0.0 0.00 0.00 0.00 53 1022.8
20190418233206 13 0.0 0.0 0.00 0.00 0.00 53 1022.8
20190418231704 14 0.0 0.0 0.00 0.00 0.00 52 1022.6
20190418230204 14 0.0 0.0 0.00 0.00 0.00 52 1022.4
20190418224704 14 0.0 0.0 0.00 0.00 0.00 52 1022.2
20190418223207 14 0.0 0.0 0.00 0.00 0.00 52 1022.2
20190418221704 14 0.0 0.0 0.00 0.00 0.00 52 1022.0
20190418220205 15 0.0 0.0 0.00 0.00 0.00 51 1021.9
20190418214705 15 0.0 0.0 0.00 0.00 0.00 51 1022.0
20190418213205 15 0.0 0.0 0.00 0.00 0.00 50 1022.0
20190418211704 15 0.0 0.0 0.00 0.00 0.00 50 1021.7
20190418210205 15 0.0 0.0 0.00 0.00 0.00 50 1021.4
20190418204705 15 0.0 0.0 0.00 0.00 0.00 50 1021.6
20190418203205 15 0.0 0.0 0.00 0.00 0.00 50 1021.6
20190418201705 15 0.0 0.0 0.00 0.00 0.00 49 1021.3
20190418200204 16 0.0 0.0 0.00 0.00 0.00 47 1021.1
20190418194704 16 0.0 0.0 0.00 0.00 0.00 46 1021.1
20190418193205 17 0.0 0.0 0.00 0.00 0.00 44 1021.1
20190418191705 18 0.0 0.0 0.00 0.00 0.00 42 1021.2
20190418190205 18 0.0 0.0 0.00 0.00 0.00 40 1021.6
20190418184704 19 0.0 0.0 0.00 0.00 0.00 38 1023.7
20190418183205 20 0.0 0.0 0.00 0.00 0.00 36 1023.7
20190418181705 21 0.0 0.0 0.00 0.00 0.00 34 1023.3
20190418180205 23 0.0 0.0 0.00 0.00 0.00 33 1023.3
20190418174705 23 0.0 0.0 0.00 0.00 0.00 31 1023.3
20190418173205 23 0.0 0.0 0.00 0.00 0.00 31 1023.4
20190418171705 23 0.0 0.0 0.00 0.00 0.00 30 1024.0
20190418170205 23 0.0 0.0 0.00 0.00 0.00 31 1023.6
20190418164704 24 0.0 0.0 0.00 0.00 0.00 30 1022.9
20190418163205 25 0.0 0.0 0.00 0.00 0.00 29 1022.9
20190418161711 24 0.0 0.0 0.00 0.00 0.00 30 1022.8
20190418160205 25 0.0 0.0 0.00 0.00 0.00 29 1022.8
20190418154711 24 0.0 0.0 0.00 0.00 0.00 30 1022.8
20190418153212 24 0.0 0.0 0.00 0.00 0.00 31 1022.3
20190418151709 24 0.0 0.0 0.00 0.00 0.00 30 1021.7
20190418150205 24 0.0 0.0 0.00 0.00 0.00 31 1023.3
20190418144705 24 0.0 0.0 0.00 0.00 0.00 31 1023.9
20190418143205 24 0.0 0.0 0.00 0.00 0.00 31 1023.9
20190418141705 23 0.0 0.0 0.00 0.00 0.00 33 1024.8
20190418140205 22 0.0 0.0 0.00 0.00 0.00 33 1025.3
20190418134705 23 0.0 0.0 0.00 0.00 0.00 35 1024.9
20190418133205 23 0.0 0.0 0.00 0.00 0.00 35 1024.9
20190418131705 22 0.0 0.0 0.00 0.00 0.00 35 1024.2
20190418130205 22 0.0 0.0 0.00 0.00 0.00 35 1023.9
20190418124705 22 0.0 0.0 0.00 0.00 0.00 35 1023.9
20190418123205 22 0.0 0.0 0.00 0.00 0.00 37 1023.9
20190418121705 22 0.0 0.0 0.00 0.00 0.00 37 1023.9
20190418120205 22 0.0 0.0 0.00 0.00 0.00 36 1024.1
20190418114704 21 0.0 0.0 0.00 0.00 0.00 38 1024.3
20190418113205 21 0.0 0.0 0.00 0.00 0.00 39 1024.3
20190418111705 21 0.0 0.0 0.00 0.00 0.00 39 1024.6
20190418110205 21 0.0 0.0 0.00 0.00 0.00 41 1024.4
20190418104705 21 0.0 0.0 0.00 0.00 0.00 41 1024.4
20190418103205 20 0.0 0.0 0.00 0.00 0.00 42 1024.4
20190418101705 20 0.0 0.0 0.00 0.00 0.00 43 1024.8
20190418100205 19 0.0 0.0 0.00 0.00 0.00 44 1025.0
20190418094704 19 0.0 0.0 0.00 0.00 0.00 45 1024.8
20190418093205 18 0.0 0.0 0.00 0.00 0.00 47 1024.8
20190418090219 17 0.0 0.0 0.00 0.00 0.00 50 1025.1
20190418084710 17 0.0 0.0 0.00 0.00 0.00 51 1024.9
20190418083217 16 0.0 0.0 0.00 0.00 0.00 52 1024.9
20190418081705 16 0.0 0.0 0.00 0.00 0.00 53 1024.8
20190418080205 15 0.0 0.0 0.00 0.00 0.00 55 1024.9
20190418074705 14 0.0 0.0 0.00 0.00 0.00 57 1024.8
20190418073206 13 0.0 0.0 0.00 0.00 0.00 57 1024.8
20190418071705 13 0.0 0.0 0.00 0.00 0.00 58 1024.1
20190418070206 12 0.0 0.0 0.00 0.00 0.00 60 1024.4
20190418064705 12 0.0 0.0 0.00 0.00 0.00 62 1024.3
20190418063205 11 0.0 0.0 0.00 0.00 0.00 64 1024.3
20190418061705 11 0.0 0.0 0.00 0.00 0.00 66 1024.0
20190418060205 10 0.0 0.0 0.00 0.00 0.00 67 1023.9
20190418054706 10 0.0 0.0 0.00 0.00 0.00 68 1023.4
20190418053205 10 0.0 0.0 0.00 0.00 0.00 69 1023.4
20190418051704 9 0.0 0.0 0.00 0.00 0.00 69 1022.3
20190418050205 10 0.0 0.0 0.00 0.00 0.00 69 1020.0
20190418044704 10 0.0 0.0 0.00 0.00 0.00 69 1019.9
20190418043205 10 0.0 0.0 0.00 0.00 0.00 69 1019.9
20190418041705 10 0.0 0.0 0.00 0.00 0.00 69 1019.8
20190418040205 10 0.0 0.0 0.00 0.00 0.00 69 1019.6
20190418034705 11 0.0 0.0 0.00 0.00 0.00 68 1019.8
20190418033205 11 0.0 0.0 0.00 0.00 0.00 68 1019.8
20190418031705 11 0.0 0.0 0.00 0.00 0.00 69 1019.8
20190418030205 11 0.0 0.0 0.00 0.00 0.00 70 1020.0
20190418024705 11 0.0 0.0 0.00 0.00 0.00 70 1019.9
20190418023205 11 0.0 0.0 0.00 0.00 0.00 70 1019.9